Other Public Products
Issued by NWS Charleston, SC

Current Version | Previous Version | Text Only | Print | Product List | Glossary Off
Versions: 1 2 3 4 5 6 7 8 9 10 11 12 13 14 15 16 17 18 19 20 21 22 23 24 25 26 27 28 29 30 31 32 33 34 35 36 37 38 39 40 41 42 43 44 45 46 47 48 49 50
986 FPUS82 KCHS 200712 OPUCHS TEST...KCHS/KSAV Gateway Observations...TEST National Weather Service Charleston SC 300 AM EDT FRI APR 20 2018 NOTE: "fair" indicates few or no clouds below 12,000 feet with no significant weather and/or obstructions to visibility. SCZ050-WAZ558-NCZ071-TXZ119-213-PAZ071-DCZ001-FLZ074-172-MI076- NYZ176-178-MAZ016-IL014-TNZ027-NJZ106-GAZ044-MD014-200800- ...Gateway Observations for Charleston International... CITY SKY/WX TMP DP RH WIND PRES REMARKS Chas Airport FAIR 54 31 41 N17G25 30.17R Seattle PTCLDY 51 36 56 NE9 30.26S Charlotte FAIR 42 28 57 NE6 30.26S Dallas DFW MOCLDY 55 39 54 E8 30.25S Dallas Love PTCLDY 55 39 54 E7 30.26S Philladelphia FAIR 39 22 50 NW15G23 30.13R WCI 31 Wash National FAIR 42 21 43 N15 30.21R Baltimore FAIR 38 21 50 W12 30.18R WCI 30 Miami FAIR 71 66 84 SW3 30.07F Detroit FAIR 34 23 64 NW5 30.36S WCI 30 Newark FAIR 37 24 59 W12 30.05R WCI 29 Laguardia FAIR 39 23 52 W17G26 30.03R WCI 30 J F K FAIR 37 23 56 W18G25 30.04R WCI 27 Boston Logan CLOUDY 38 29 70 W16 29.86R WCI 29 Ft. Lauderdale FAIR 72 67 84 SW5 30.06S Chicago O`Hare FAIR 37 23 56 NW5 30.43S WCI 33 Chicago Midway FAIR 39 24 55 CALM 30.44S Houston Bush MOCLDY 57 46 66 NE5 30.21F Houston Hobby MOCLDY 59 45 59 NE6 30.20F Nashville FAIR 41 33 73 N5 30.35S Atlanta FAIR 47 33 58 N8 30.19R $$ GAZ044-118-TXZ119-213-NCZ071-DCZ001-MDZ014-506-PAZ021-071-NJZ106- NYZ176-178-MAZ106-OHZ011-021-055-MIZ076-KYZ091-ILZ014-INZ047- MNZ060-ONZ431-200800- ...Gateway Observations for Savannah International... CITY SKY/WX TMP DP RH WIND PRES REMARKS Savannah Arpt MOCLDY 59 37 44 NE18G24 30.13R Atlanta FAIR 47 33 58 N8 30.19R Charlotte FAIR 42 28 57 NE6 30.26S Dallas DFW MOCLDY 55 39 54 E8 30.25S Houston Bush MOCLDY 57 46 66 NE5 30.21F Wash National FAIR 42 21 43 N15 30.21R Wash Dulles FAIR 39 23 52 NW12 30.19S WCI 32 Baltimore FAIR 38 21 50 W12 30.18R WCI 30 Philadelphia FAIR 39 22 50 NW15G23 30.13R WCI 31 Newark FAIR 37 24 59 W12 30.05R WCI 29 Laguardia FAIR 39 23 52 W17G26 30.03R WCI 30 J F K FAIR 37 23 56 W18G25 30.04R WCI 27 Boston CLOUDY 38 29 70 W16 29.86R WCI 29 Pittsburg FAIR 30 22 72 W6 30.26F WCI 24 Akron FAIR 28 20 71 NW5 30.30R WCI 23 Cleveland FAIR 30 23 75 W6 30.35R WCI 24 Cincinnati FAIR 38 27 64 N7 30.36R WCI 33 Columbus FAIR 34 26 74 NE6 30.36R WCI 29 Detroit FAIR 34 23 64 NW5 30.36S WCI 30 Chicago O`Hare FAIR 37 23 56 NW5 30.43S WCI 33 Minneapolis FAIR 36 26 67 SW5 30.47R WCI 32 Indianapolis FAIR 35 17 47 N7 30.41R WCI 29 Toronto Canada CLEAR 30 19 64 NW14 30.24R WCI 20 $$

USA.gov is the U.S. government's official web portal to all federal, state and local government web resources and services.